Location: *
(41.8289°N, 44.7039°E)
Time: 04:25:30
(UTC+00:00)

Daily predictions for brighter satellites

Satellite Brightness Start Highest point End
(mag) Time Altitude Azimuth Time Altitude Azimuth Time Altitude Azimuth
CZ-4B R/B 4.3 00:00:02 10° ESE 00:02:30 18° ENE 00:04:59 10° NNE
CZ-2D R/B 3.8 00:01:07 10° NNW 00:04:27 21° NW 00:04:27 21° NW
Lacrosse 5 rocket 4.0 00:06:26 10° NNW 00:06:48 10° N 00:07:09 10° N
STARLINK-1011 4.5 00:08:46 43° N 00:08:46 43° N 00:12:16 10° NE
Cosmos 389 Rocket 3.7 00:09:18 41° ENE 00:09:18 41° ENE 00:12:19 10° NNE
ATLAS 3B R/B 3.5 00:06:04 26° SSE 00:09:17 42° ESE 00:15:26 10° NE
USA 267 3.2 00:03:03 10° NE 00:09:37 89° SE 00:11:31 51° SW
STARLINK-1050 4.4 00:10:20 45° ESE 00:10:20 45° ESE 00:13:53 10° ENE
STARLINK-1036 4.4 00:13:34 42° NNW 00:13:34 42° NNW 00:17:15 10° NE
STARLINK-1055 4.2 00:15:07 51° ESE 00:15:07 51° ESE 00:18:54 10° ENE
SL-08 R/B 4.3 00:19:03 34° NW 00:19:03 34° NW 00:22:16 10° NNW
Okean 3 3.9 00:17:16 45° SE 00:18:08 55° E 00:22:14 10° NNE
STARLINK-1044 4.5 00:18:21 40° NNW 00:18:21 40° NNW 00:22:13 10° NE
Meteor 1-19 Rocket 4.1 00:17:17 52° SSW 00:18:44 85° W 00:24:16 10° N
Cosmos 2237 Rocket 3.2 00:13:57 10° NW 00:17:06 29° WNW 00:17:06 29° WNW
STARLINK-1022 3.9 00:19:55 57° SE 00:19:55 57° SE 00:23:55 10° ENE
Cosmos 1900 4.4 00:21:20 54° WNW 00:21:35 55° NW 00:26:23 10° NNE
ATLAS 5 CENTAUR R/B 3.9 00:18:52 10° NNW 00:24:07 36° NE 00:30:06 10° ESE
Cosmos 1515 4.0 00:24:55 56° NNW 00:24:55 56° NNW 00:28:04 10° N
Cosmos 2142 Rocket 4.5 00:18:03 10° NNW 00:24:19 64° W 00:26:46 37° SSW
STARLINK-1042 3.7 00:24:42 62° SSE 00:24:48 63° SE 00:28:54 10° ENE
Cosmos 494 Rocket 4.2 00:20:39 10° NNW 00:25:56 73° ENE 00:31:11 10° SSE
Cosmos 1818 4.3 00:21:46 10° NNW 00:27:07 53° NE 00:32:24 10° SE
Cosmos 2263 Rocket 4.1 00:24:48 10° SSE 00:29:21 25° ESE 00:33:56 10° NE
STARLINK-1056 3.6 00:29:28 66° S 00:29:46 69° SE 00:33:53 10° ENE
Cosmos 2221 Rocket 3.5 00:30:26 47° S 00:31:42 84° E 00:36:08 10° N
Cosmos 1300 Rocket 4.1 00:27:44 10° N 00:31:59 55° E 00:36:13 10° SSE
Cosmos 1544 3.3 00:29:29 10° NNW 00:32:32 58° NNW 00:32:32 58° NNW
ATLAS 5 CENTAUR R/B 3.9 00:29:59 15° S 00:33:21 23° SE 00:35:53 10° ENE
USA 238 DEB 4.1 00:31:32 35° W 00:33:50 47° NW 00:40:28 10° NNE
USA 238 4.1 00:31:37 35° W 00:33:56 47° NW 00:40:36 10° NNE
STARLINK-1054 3.5 00:34:14 65° SSW 00:34:43 76° SE 00:38:52 10° NE
Cosmos 2297 Rocket 3.0 00:36:37 31° WNW 00:37:40 33° WNW 00:42:45 10° N
Landsat 5 3.9 00:39:18 40° NW 00:39:18 40° NW 00:42:08 10° NNW
STARLINK-1062 3.5 00:39:01 61° SW 00:39:41 82° SE 00:43:51 10° NE
Okean 2 Rocket 3.0 00:36:55 10° N 00:41:27 88° E 00:45:38 12° S
Sich 1 Rocket 3.6 00:38:19 10° NNW 00:42:36 52° W 00:43:06 49° WSW
Cosmos 2151 Rocket 4.0 00:38:30 10° N 00:42:52 61° E 00:47:13 10° SSE
USA 234 3.9 00:36:42 10° ESE 00:43:04 57° NNE 00:49:27 10° NW
ASTRO F (AKARI) 4.3 00:39:57 10° NNE 00:43:24 88° E 00:43:47 69° S
Meteor 2-9 Rocket 4.3 00:38:49 10° NNW 00:44:37 62° W 00:49:43 13° S
STARLINK-1053 3.5 00:43:49 55° SW 00:44:41 89° SE 00:48:51 10° NE
PSLV R/B 4.1 00:40:51 10° NNE 00:45:11 59° E 00:48:36 16° S
Cosmos 1975 3.6 00:41:55 10° NNW 00:44:55 35° WNW 00:44:55 35° WNW
Cosmos 1269 Rocket 4.1 00:41:09 10° NNW 00:46:29 77° ENE 00:51:47 10° SSE
Meteor 2-4 Rocket 3.7 00:43:25 24° SSW 00:47:09 78° W 00:53:04 10° N
STARLINK-1061 3.5 00:48:34 49° WSW 00:49:38 84° NW 00:53:47 10° NE
Cosmos 1689 Rocket 4.1 00:47:46 10° SE 00:50:28 31° ENE 00:53:10 10° N
Nadezhda 4 Rocket 4.0 00:44:52 13° S 00:50:37 89° W 00:57:00 10° N
Cosmos 1048 Rocket 4.4 00:45:49 10° NW 00:50:47 39° WSW 00:52:48 28° SSW
Cosmos 1356 3.5 00:48:02 10° N 00:51:29 77° E 00:54:53 10° SSE
Cosmos 2279 Rocket 4.2 00:46:35 10° NNW 00:52:29 46° W 00:56:22 21° SSW
COBE Rocket 3.8 00:49:14 19° S 00:52:31 58° W 00:57:09 10° NNW
STARLINK-1067 3.6 00:53:23 43° WSW 00:54:38 77° NW 00:58:47 10° NE
BREEZE M DEB (TANK) 2.5 00:54:56 41° NNW 00:55:03 42° NNW 00:58:11 10° NE
CZ-2C R/B 3.3 00:52:30 10° N 00:56:18 40° WNW 00:56:57 37° W
NOSS 3-2 (A) 4.4 00:55:27 23° W 00:58:10 33° NW 01:04:04 10° NNE
Cosmos 1125 Rocket 4.3 00:57:27 29° W 00:59:08 36° WNW 01:04:02 10° N
Geosat 4.3 00:54:11 10° NNE 00:59:13 66° ESE 01:03:30 14° SSW
STARLINK-1058 3.6 00:58:08 38° WSW 00:59:35 71° NW 01:03:44 10° NE
CENTAUR R/B 2.8 00:59:00 27° WSW 01:02:11 55° NW 01:09:02 10° NNE
Cosmos 2227 Rocket 3.5 01:02:32 20° W 01:04:28 24° NW 01:09:00 10° N
STARLINK-1043 3.7 01:02:56 34° WSW 01:04:35 65° NW 01:08:44 10° NE
STARLINK-1065 3.7 01:03:33 33° WSW 01:05:14 65° NW 01:09:22 10° NE
MSX 3.8 01:00:05 10° N 01:05:51 76° WNW 01:11:19 11° SSW
ADEOS II 3.8 01:04:10 10° NNW 01:07:12 16° WNW 01:08:12 15° WNW
STARLINK-1063 3.9 01:12:30 26° W 01:14:35 56° NNW 01:18:40 10° NE
Cosmos 1943 4.4 01:09:10 10° NNW 01:14:41 47° ENE 01:20:08 10° SE
STARLINK-1064 4.0 01:17:17 23° W 01:19:35 51° NNW 01:23:38 10° NE
IDEFIX/ARIANE 42P 3.2 01:16:47 10° N 01:21:29 35° WNW 01:24:49 17° SW
STARLINK-1041 4.1 01:22:03 21° W 01:24:33 48° NNW 01:28:35 10° NE
Okean 1 Rocket 3.1 01:23:34 10° N 01:27:58 84° E 01:32:22 10° S
ARIANE 5 R/B 4.4 01:26:24 10° NNW 01:29:06 14° WNW 01:31:01 12° W
STARLINK-1038 4.2 01:26:50 18° W 01:29:33 44° NNW 01:33:32 10° NE
NOSS 3-2 (C) 4.4 01:25:54 16° W 01:29:56 32° NW 01:35:49 10° NNE
CZ-2C R/B 2.2 01:27:53 10° N 01:32:27 73° WNW 01:37:00 10° SSW
STARLINK-1046 4.4 01:31:37 16° W 01:34:33 42° NNW 01:38:30 10° NE
CZ-4B R/B 2.5 01:31:44 10° SSW 01:34:39 26° W 01:37:37 10° NW
ATLAS CENTAUR R/B 2.8 01:34:05 11° NW 01:34:55 12° NNW 01:36:01 10° N
SJ-6F 4.4 01:33:51 10° N 01:38:01 78° WNW 01:42:09 10° SSW
Gbstr 26 Del rocket 3.9 01:33:03 10° SW 01:39:14 66° SE 01:44:16 10° ENE
CZ-4B R/B 4.2 01:35:30 10° NNE 01:39:22 65° ESE 01:43:04 10° S
STARLINK-1039 4.5 01:36:24 14° W 01:39:33 39° NNW 01:43:28 10° NE
SL-16 R/B 3.2 01:35:15 10° NW 01:39:43 24° WSW 01:44:10 10° SSW
Meteor 1-4 Rocket 3.7 01:39:41 14° SW 01:42:13 26° WNW 01:45:26 10° NNW
COSMO-SKYMED 1 4.3 01:40:34 10° SE 01:44:34 38° ENE 01:48:36 10° N
STARLINK-43 3.3 01:41:28 10° WNW 01:45:09 67° SW 01:48:48 10° SE
ADEOS 3.8 01:40:10 10° N 01:45:13 52° WNW 01:50:16 10° SW
PSLV R/B 3.9 01:42:08 10° S 01:46:19 77° WSW 01:50:32 10° NNW
Cosmos 1066 Rocket 4.3 01:40:40 10° SSW 01:46:30 73° WNW 01:52:21 10° N
Cosmos 1674 Rocket 4.2 01:43:17 10° SW 01:47:19 34° WNW 01:51:21 10° N
Lacrosse 5 rocket 4.2 01:46:51 10° N 01:47:38 10° NNE 01:48:25 10° NNE
STARLINK-26 4.3 01:47:43 10° NW 01:51:04 45° NNE 01:54:24 10° ESE
Cosmos 1484 Rocket 3.0 01:48:19 10° NNE 01:52:07 70° E 01:55:50 10° S
USA 267 4.2 01:46:22 10° NE 01:52:11 36° NNW 01:58:00 10° W
Cosmos 1733 4.4 01:52:22 10° N 01:56:06 48° E 01:59:49 10° SSE
ATLAS 3B R/B 3.2 01:53:40 10° WSW 01:59:56 42° NW 02:06:13 10° NNE
CZ-4B R/B 3.2 01:55:47 10° NNE 02:00:10 88° ESE 02:04:39 10° SSW
Cosmos 1378 3.1 01:56:36 10° SSW 02:00:18 75° W 02:04:04 10° N
SeaSat 1 2.5 01:55:41 10° SSE 02:00:34 62° WSW 02:05:28 10° NNW
Cosmos 1805 3.2 01:57:25 10° N 02:01:20 88° WSW 02:05:12 10° S
Cosmos 1603 3.8 01:57:27 10° NNW 02:02:57 58° WSW 02:08:28 10° S
Meteor 1-15 Rocket 4.5 01:58:14 10° NNW 02:03:35 48° W 02:08:59 10° SSW
